This is the latest recevied weather packets stored in our database for station/object F5PQL-4. If no packets are shown the sender has not sent any weather packets the latest 10 day(s).
| Time | Temp. | Humidity | Pressure | Rain* | Wind** | Luminosity | Snow |
|---|---|---|---|---|---|---|---|
| 1777677716 | 17.78° C | 38% | 1024.1 hPa | - | - | - | - |
| 1777676816 | 18.33° C | 38% | 1024.1 hPa | - | - | - | - |
| 1777675915 | 18.33° C | 38% | 1024 hPa | - | - | - | - |
| 1777675015 | 18.89° C | 37% | 1023.8 hPa | - | - | - | - |
| 1777674116 | 19.44° C | 37% | 1023.7 hPa | - | - | - | - |
| 1777673215 | 20° C | 39% | 1023.7 hPa | - | - | - | - |
| 1777672315 | 20.56° C | 40% | 1023.6 hPa | - | - | - | - |
| 1777671415 | 20.56° C | 41% | 1023.5 hPa | - | - | - | - |
| 1777670515 | 21.11° C | 42% | 1023.4 hPa | - | - | - | - |
| 1777669615 | 21.11° C | 43% | 1023.2 hPa | - | - | - | - |
| 1777668714 | 21.11° C | 43% | 1023.2 hPa | - | - | - | - |
| 1777667814 | 21.11° C | 42% | 1023.1 hPa | - | - | - | - |
| 1777666913 | 21.67° C | 43% | 1023 hPa | - | - | - | - |
| 1777666012 | 21.67° C | 42% | 1022.9 hPa | - | - | - | - |
| 1777665112 | 21.67° C | 43% | 1022.6 hPa | - | - | - | - |
| 1777664212 | 22.22° C | 43% | 1022.5 hPa | - | - | - | - |
| 1777663312 | 22.22° C | 43% | 1022.4 hPa | - | - | - | - |
| 1777662412 | 22.78° C | 42% | 1022.2 hPa | - | - | - | - |
| 1777661512 | 22.78° C | 42% | 1022 hPa | - | - | - | - |
| 1777660611 | 23.33° C | 40% | 1022 hPa | - | - | - | - |
| 1777659711 | 23.89° C | 39% | 1021.9 hPa | - | - | - | - |
| 1777658789 | 25° C | 38% | 1021.8 hPa | - | - | - | - |
| 1777657889 | 26.11° C | 37% | 1021.8 hPa | - | - | - | - |
| 1777656989 | 26.67° C | 35% | 1021.7 hPa | - | - | - | - |
| 1777656089 | 27.22° C | 33% | 1021.5 hPa | - | - | - | - |
* Rain since midnight (hover to see other rain measurements)
** Current wind speed in m/s (hover to see current wind gust speed)